GW3657 Weather Reports


time (UTC)temp
F
wind
direction
speed
knots
gust
knots
rain 1hr
in
rain 24hr
in
rain mn
in
humidity
%
barometer
mb
20260506203047 59 258 0.0 4.3 0.00 0.34 0.34 81 1009.5
20260506201550 59 0 0.9 7.0 0.00 0.34 0.34 80 1009.1
20260506200048 59 287 5.2 9.6 0.00 0.34 0.34 79 1008.7
20260506194550 59 123 3.5 7.8 0.00 0.34 0.34 78 1008.2
20260506193045 59 125 3.5 7.8 0.00 0.34 0.34 77 1008.1
20260506191551 60 0 0.0 9.6 0.00 0.34 0.34 76 1007.9
20260506190046 61 156 2.6 14.8 0.00 0.34 0.34 76 1007.6
20260506184605 61 145 1.7 5.2 0.00 0.34 0.34 78 1007.7
20260506183048 61 59 2.6 6.1 0.00 0.34 0.34 79 1007.3
20260506181551 62 9 3.5 6.1 0.00 0.34 0.34 78 1006.9
20260506180058 61 92 4.3 10.4 0.06 0.34 0.34 77 1006.6
20260506174547 61 355 5.2 17.4 0.15 0.34 0.34 80 1006.5
20260506173050 62 139 8.7 15.6 0.15 0.34 0.34 77 1005.8
20260506171557 62 126 7.8 19.1 0.15 0.34 0.34 78 1005.8
20260506170053 62 130 8.7 20.0 0.08 0.27 0.27 78 1005.6
20260506164548 65 128 10.4 16.5 0.01 0.18 0.18 71 1005.3
20260506163049 66 107 7.0 17.4 0.03 0.18 0.18 70 1005.3
20260506161546 65 121 10.4 17.4 0.07 0.18 0.18 70 1005.4
20260506160108 65 103 11.3 18.2 0.16 0.18 0.18 72 1005.3
20260506154551 65 125 10.4 14.8 0.14 0.17 0.17 73 1005.2
20260506153046 65 136 8.7 16.5 0.13 0.15 0.15 72 1005.5
20260506151545 64 132 6.1 9.6 0.08 0.11 0.11 71 1005.8
20260506150054 66 128 7.0 12.2 0.00 0.02 0.02 65 1005.6
20260506144559 67 150 6.1 13.0 0.00 0.02 0.02 62 1005.3
20260506143050 68 126 7.8 16.5 0.00 0.02 0.02 61 1005.4
20260506141547 69 101 8.7 14.8 0.00 0.02 0.02 61 1005.6
20260506140050 69 103 7.8 13.0 0.00 0.02 0.02 62 1005.6
20260506134549 68 171 7.0 13.0 0.00 0.02 0.02 60 1005.8
20260506133050 67 115 7.0 16.5 0.00 0.02 0.02 64 1005.9
20260506131557 68 90 4.3 9.6 0.00 0.02 0.02 64 1005.9
20260506130049 69 34 3.5 11.3 0.00 0.02 0.02 63 1006.0
20260506124547 68 71 7.0 12.2 0.00 0.02 0.02 63 1006.1
20260506123052 67 338 7.8 11.3 0.00 0.02 0.02 71 1006.1
20260506121547 67 17 7.0 11.3 0.00 0.02 0.02 70 1006.1
20260506120052 67 10 6.1 11.3 0.00 0.02 0.02 71 1006.2
20260506114551 66 11 3.5 9.6 0.00 0.02 0.02 72 1006.4
20260506113048 65 5 2.6 9.6 0.00 0.02 0.02 75 1006.6
20260506111543 64 332 2.6 8.7 0.00 0.02 0.02 74 1006.6
20260506110048 64 316 0.9 7.0 0.00 0.02 0.02 76 1006.8
20260506104551 64 347 4.3 7.8 0.00 0.03 0.02 77 1007.0
20260506103052 64 41 2.6 6.1 0.00 0.03 0.02 77 1007.1
20260506101550 62 28 3.5 7.0 0.00 0.03 0.02 80 1007.1
20260506100100 63 10 1.7 5.2 0.00 0.03 0.02 77 1007.4
20260506094549 62 0 0.9 5.2 0.00 0.03 0.02 78 1007.4
20260506093045 60 9 1.7 7.0 0.00 0.03 0.02 82 1007.6
20260506091552 59 312 1.7 8.7 0.00 0.03 0.02 83 1007.7
20260506090044 60 311 2.6 4.3 0.00 0.03 0.02 80 1007.6
20260506084543 60 90 1.7 3.5 0.00 0.03 0.02 82 1007.6
20260506083045 58 0 0.0 3.5 0.00 0.03 0.02 87 1007.8
20260506081545 58 0 0.0 0.0 0.00 0.03 0.02 88 1007.9
20260506073050 56 0 0.0 1.7 0.00 0.03 0.02 93 1008.0
20260506071558 55 355 0.0 1.7 0.00 0.03 0.02 94 1007.8
20260506061549 54 327 0.0 2.6 0.00 0.03 0.02 94 1008.0
20260506044546 54 73 1.7 5.2 0.00 0.12 0.01 94 1008.6
20260506043046 54 111 1.7 6.1 0.00 0.12 0.01 95 1008.7
20260506041550 54 36 0.9 3.5 0.00 0.12 0.01 95 1008.8
20260506040055 54 0 0.0 2.6 0.00 0.12 0.01 95 1009.0
20260506034545 54 111 0.9 2.6 0.00 0.34 0.01 95 1009.0
20260506033047 54 42 0.9 2.6 0.00 0.34 0.01 95 1009.0
20260506031550 54 0 0.0 0.0 0.00 0.34 0.01 95 1009.2
20260506030100 54 0 0.0 0.0 0.00 0.34 0.01 94 1009.6
20260506024556 54 0 0.0 0.0 0.00 0.42 0.01 94 1009.6
20260506023044 54 0 0.0 0.9 0.00 0.42 0.01 94 1009.7
20260506021600 54 104 1.7 3.5 0.00 0.42 0.01 94 1010.0
20260506020051 54 122 2.6 7.0 0.00 0.42 0.01 94 1010.0
20260506014558 54 88 0.9 3.5 0.01 0.45 0.01 94 1009.9
20260506013054 54 0 0.0 0.0 0.01 0.45 0.01 94 1010.0
20260506011609 54 0 0.0 0.0 0.01 0.45 0.01 94 1010.3
20260506010053 54 0 0.0 0.0 0.00 0.44 0.00 94 1010.6
20260506004550 54 0 0.0 0.0 0.00 0.59 0.00 94 1011.1
20260506003049 54 0 0.0 0.0 0.00 0.59 0.00 94 1011.2
20260506001546 54 0 0.0 0.0 0.00 0.59 0.00 94 1011.5
20260506000047 54 0 0.0 0.0 0.00 0.59 0.00 94 1011.8
20260505234544 54 0 0.0 0.0 0.00 0.64 0.00 94 1012.0
20260505233057 54 0 0.0 2.6 0.00 0.64 0.00 94 1012.1
20260505231549 54 0 0.0 1.7 0.00 0.64 0.00 94 1012.0
20260505230051 54 0 0.0 0.0 0.00 0.64 0.00 93 1011.9
20260505224547 55 0 0.9 1.7 0.00 0.66 0.00 93 1012.1
20260505223050 55 0 0.0 2.6 0.00 0.66 0.00 93 1012.4
20260505221555 55 0 0.0 0.0 0.00 0.66 0.00 93 1012.4
20260505220050 55 0 0.0 2.6 0.00 0.66 0.00 93 1012.3
20260505214548 55 0 0.0 2.6 0.00 0.66 0.66 92 1012.6
20260505213048 55 0 0.0 2.6 0.00 0.66 0.66 92 1012.6
20260505211552 55 0 0.9 3.5 0.00 0.66 0.66 91 1012.7
20260505210049 56 0 0.0 0.0 0.00 0.66 0.66 91 1012.7
20260505204548 56 0 0.0 0.0 0.00 0.66 0.66 91 1012.9